Snowfall_Accumulation
0.0 0.0 0.0 0.0 0.0 0.0 0.0 0.0 0.0 0.0 0.0 0.0 0.0 0.0 0.0 0.0 0.0 0.0 0.0 nan nan nan nan nan nan nan nan nan nan nan nan nan nan nan nan nan nan nan
0.0 0.0 0.0 0.0 0.0 0.0 0.0 0.0 0.0 0.0 0.0 0.0 0.0 0.0 0.0 0.0 0.0 0.0 0.0 nan nan nan nan nan nan nan nan nan nan nan nan nan nan nan nan nan nan nan
0.0 0.0 0.0 0.0 0.0 0.0 0.0 0.0 0.0 0.0 0.0 0.0 0.0 0.0 0.0 0.0 0.0 0.0 0.0 0.0 0.0 nan nan nan nan nan nan nan nan nan nan nan nan nan nan nan nan nan
0.0 0.0 0.0 0.0 0.0 0.0 0.0 0.0 0.0 0.0 0.0 0.0 0.0 0.0 0.0 0.0 0.0 0.0 0.0 0.0 0.0 nan nan nan nan nan nan nan nan nan nan nan nan nan nan nan nan nan
0.0 0.0 0.0 0.0 0.0 0.0 0.0 0.0 0.0 0.0 0.0 0.0 0.0 0.0 0.0 0.0 0.0 0.0 0.0 0.0 0.0 nan nan nan nan nan nan nan nan nan nan nan nan nan nan nan nan nan
0.0 0.0 0.0 0.0 0.0 0.0 0.0 0.0 0.0 0.0 0.0 0.0 0.0 0.0 0.0 0.0 0.0 0.0 0.0 0.0 0.0 0.0 nan nan nan nan nan nan nan nan nan nan nan nan nan nan nan nan
0.0 0.0 0.0 nan nan nan 0.0 0.0 0.0 0.0 0.0 0.0 0.0 0.0 0.0 0.0 0.0 0.0 0.0 0.0 0.0 0.0 0.0 0.0 0.0 0.0 0.0 nan nan nan nan nan nan nan nan nan nan nan
0.0 0.0 0.0 0.0 0.0 nan nan nan nan 0.2 0.5 0.6 0.4 0.4 0.2 0.4 0.3 0.6 0.8 1.4 1.9 0.0 0.0 0.1 0.0 0.0 0.0 0.0 nan nan nan nan nan nan nan nan nan nan
0.0 0.0 0.2 0.5 nan 0.2 nan nan nan nan 0.6 0.3 0.7 1.1 1.2 0.7 0.4 0.6 0.7 0.9 0.7 0.0 0.3 0.6 0.1 0.1 0.0 0.0 nan nan nan nan nan nan nan nan nan nan
0.4 0.4 0.5 1.1 1.0 0.9 1.1 1.4 0.9 0.7 0.5 0.3 0.6 0.5 0.4 0.2 0.3 0.4 0.7 0.6 0.3 0.1 0.1 3.6 0.2 0.2 0.0 0.0 nan nan nan nan nan nan nan nan nan nan
1.0 1.6 1.2 1.4 nan nan 0.8 0.7 0.6 0.5 nan nan nan nan nan nan nan 1.1 1.8 2.7 2.0 0.4 0.3 1.9 0.5 0.4 0.1 0.1 0.0 nan nan nan nan nan nan nan nan nan
1.7 1.4 nan 1.0 nan nan 0.4 0.5 0.8 0.5 0.4 0.3 0.3 0.1 nan nan nan 0.3 1.1 4.2 2.3 2.1 1.0 2.6 0.6 1.1 2.0 0.2 0.1 0.1 0.1 nan nan nan nan nan nan 0.2
1.1 1.0 0.6 nan nan nan nan 0.4 0.7 0.3 0.1 0.2 0.2 0.3 0.2 0.2 0.4 0.4 0.4 2.1 3.0 1.5 0.0 2.5 1.0 0.4 1.2 1.0 0.2 0.2 0.2 0.2 0.2 0.1 nan nan nan 0.2
1.7 1.7 1.2 nan nan nan 0.4 nan nan 0.2 1.7 1.6 1.4 1.1 1.0 0.8 0.6 0.4 0.1 0.3 0.4 0.8 0.1 0.9 7.1 1.9 2.0 1.8 0.9 0.2 0.2 0.3 0.7 0.3 0.3 nan nan nan
1.1 0.9 nan nan nan 0.2 nan nan 0.0 2.2 2.7 4.7 2.3 1.2 0.8 0.5 0.1 0.3 0.1 0.1 0.1 0.1 0.0 0.2 1.8 0.5 1.8 2.3 2.0 1.2 1.5 0.5 0.4 0.6 0.7 0.5 0.5 0.5
0.1 0.7 0.0 0.5 0.0 0.2 0.8 1.2 1.7 1.9 2.8 2.9 1.9 1.0 0.6 0.9 1.0 0.5 1.3 1.2 2.6 2.0 0.0 0.1 0.3 0.6 3.0 1.2 0.9 1.1 0.5 2.3 0.7 0.6 0.6 0.5 0.4 0.3
1.1 2.3 1.6 1.3 1.5 1.3 1.4 1.3 1.2 1.3 2.7 2.5 2.5 1.8 1.3 1.0 1.2 1.0 1.1 0.9 2.8 1.2 0.9 0.7 0.1 0.1 0.6 0.3 3.0 0.7 0.9 1.1 0.9 1.0 1.4 1.1 0.4 0.4
2.4 3.3 6.5 7.3 4.6 2.1 3.0 2.6 1.8 1.7 1.8 1.9 3.2 2.4 2.7 2.8 2.9 2.6 2.3 3.0 3.7 2.0 1.1 0.5 0.7 2.5 1.4 1.1 0.7 1.2 2.6 2.5 1.5 0.8 1.1 2.5 0.8 0.6
5.2 4.3 10.1 11.5 6.6 2.9 2.6 2.4 3.5 2.9 1.0 2.5 3.4 4.0 4.1 3.0 4.0 3.1 3.0 3.0 3.2 1.7 1.8 2.0 2.4 3.1 5.0 12.8 0.8 nan 2.7 1.2 1.6 2.2 1.2 2.1 3.0 1.6
2.2 4.8 7.5 7.0 3.1 1.9 1.9 2.2 2.3 3.6 4.0 3.0 4.9 6.6 7.9 6.4 5.8 4.1 3.4 6.2 4.1 2.1 1.3 1.0 1.7 2.3 6.3 8.9 11.4 5.2 nan 4.2 3.9 4.6 3.1 1.6 1.2 nan
2.1 2.1 4.2 3.9 3.6 2.5 8.2 9.4 11.9 10.3 10.1 12.9 7.1 7.4 15.0 4.7 5.3 3.8 4.4 4.0 3.3 2.0 2.3 1.6 1.2 0.4 2.7 5.3 20.3 7.4 4.7 nan 1.9 2.9 3.2 4.5 2.5 1.7
4.9 3.4 3.1 3.4 5.5 5.1 11.7 17.6 15.1 14.1 10.3 7.4 14.8 19.8 17.3 8.6 8.0 7.0 8.1 7.2 2.8 2.9 2.5 1.3 0.8 1.4 2.7 3.6 4.7 9.7 4.3 4.4 nan nan nan nan 5.4 6.9
9.3 4.3 5.6 6.7 6.2 8.0 4.8 10.1 4.8 20.1 8.9 9.0 8.6 8.2 32.0 11.7 5.9 6.2 6.9 5.0 4.0 4.1 2.6 2.8 1.7 1.8 1.6 1.9 3.3 5.1 3.6 5.9 3.5 2.8 5.3 nan nan nan
Water_Equivalent
0.00 0.00 0.00 0.00 0.00 0.00 0.00 0.00 0.00 0.01 0.00 0.00 0.00 0.00 0.00 0.00 0.00 0.00 0.00 nan nan nan nan nan nan nan nan nan nan nan nan nan nan nan nan nan nan nan
0.00 0.00 0.00 0.00 0.00 0.00 0.00 0.00 0.00 0.00 0.00 0.00 0.00 0.00 0.00 0.00 0.00 0.00 0.00 nan nan nan nan nan nan nan nan nan nan nan nan nan nan nan nan nan nan nan
0.00 0.00 0.00 0.00 0.00 0.00 0.00 0.00 0.00 0.00 0.00 0.00 0.00 0.00 0.00 0.00 0.00 0.00 0.00 0.00 0.00 nan nan nan nan nan nan nan nan nan nan nan nan nan nan nan nan nan
0.00 0.00 0.00 0.00 0.00 0.00 0.00 0.00 0.00 0.00 0.00 0.00 0.00 0.00 0.00 0.00 0.00 0.00 0.00 0.00 0.00 nan nan nan nan nan nan nan nan nan nan nan nan nan nan nan nan nan
0.00 0.00 0.00 0.00 0.00 0.00 0.00 0.00 0.00 0.00 0.00 0.00 0.00 0.00 0.00 0.00 0.00 0.00 0.00 0.00 0.00 nan nan nan nan nan nan nan nan nan nan nan nan nan nan nan nan nan
0.00 0.00 0.00 0.00 0.00 0.00 0.00 0.00 0.00 0.00 0.00 0.00 0.00 0.00 0.00 0.00 0.00 0.00 0.00 0.00 0.00 0.00 nan nan nan nan nan nan nan nan nan nan nan nan nan nan nan nan
0.00 0.00 0.00 nan nan nan 0.00 0.00 0.00 0.00 0.00 0.00 0.00 0.01 0.00 0.00 0.00 0.00 0.01 0.00 0.00 0.00 0.00 0.00 0.00 0.00 0.00 nan nan nan nan nan nan nan nan nan nan nan
0.00 0.00 0.00 0.00 0.00 nan nan nan nan 0.03 0.08 0.11 0.06 0.10 0.07 0.13 0.11 0.20 0.22 0.34 0.37 0.00 0.00 0.02 0.00 0.00 0.00 0.00 nan nan nan nan nan nan nan nan nan nan
0.00 0.01 0.03 0.08 nan 0.04 nan nan nan nan 0.19 0.07 0.20 0.28 0.26 0.16 0.08 0.13 0.13 0.15 0.12 0.01 0.06 0.13 0.02 0.02 0.00 0.00 nan nan nan nan nan nan nan nan nan nan
0.07 0.08 0.11 0.23 0.25 0.25 0.27 0.39 0.24 0.17 0.12 0.07 0.12 0.10 0.07 0.03 0.05 0.07 0.11 0.10 0.06 0.02 0.02 0.63 0.05 0.05 0.01 0.00 nan nan nan nan nan nan nan nan nan nan
0.17 0.25 0.24 0.38 nan nan 0.19 0.14 0.10 0.09 nan nan nan nan nan nan nan 0.25 0.39 0.55 0.46 0.10 0.06 0.33 0.12 0.10 0.05 0.04 0.01 nan nan nan nan nan nan nan nan nan
0.38 0.37 nan 0.28 nan nan 0.08 0.09 0.15 0.09 0.06 0.05 0.05 0.02 nan nan nan 0.06 0.22 0.71 0.40 0.34 0.17 0.44 0.11 0.18 0.37 0.06 0.04 0.05 0.03 nan nan nan nan nan nan 0.04
0.29 0.24 0.16 nan nan nan nan 0.08 0.12 0.05 0.02 0.04 0.04 0.08 0.05 0.05 0.10 0.10 0.07 0.39 0.49 0.25 0.00 0.37 0.17 0.09 0.21 0.17 0.07 0.06 0.06 0.07 0.06 0.05 nan nan nan 0.04
0.29 0.31 0.23 nan nan nan 0.10 nan nan 0.06 0.46 0.40 0.33 0.24 0.23 0.19 0.12 0.10 0.02 0.06 0.09 0.12 0.01 0.14 1.08 0.31 0.32 0.29 0.16 0.06 0.08 0.09 0.18 0.12 0.11 nan nan nan
0.23 0.19 nan nan nan 0.06 nan nan 0.00 0.55 0.64 0.91 0.45 0.23 0.16 0.12 0.03 0.07 0.01 0.01 0.01 0.02 0.00 0.04 0.32 0.08 0.31 0.35 0.33 0.23 0.32 0.15 0.11 0.17 0.19 0.14 0.13 0.13
0.03 0.18 0.00 0.13 0.00 0.06 0.19 0.30 0.43 0.48 0.59 0.54 0.35 0.18 0.13 0.21 0.24 0.14 0.28 0.27 0.52 0.45 0.01 0.02 0.05 0.10 0.52 0.22 0.15 0.20 0.12 0.43 0.17 0.16 0.17 0.17 0.13 0.11
0.25 0.50 0.33 0.27 0.29 0.26 0.30 0.28 0.26 0.28 0.52 0.47 0.45 0.33 0.24 0.21 0.26 0.25 0.26 0.20 0.50 0.24 0.19 0.17 0.01 0.02 0.14 0.06 0.55 0.13 0.17 0.22 0.18 0.23 0.32 0.26 0.12 0.12
0.46 0.60 1.08 1.22 0.75 0.37 0.54 0.48 0.36 0.35 0.35 0.38 0.64 0.47 0.51 0.53 0.52 0.49 0.44 0.53 0.60 0.34 0.21 0.11 0.16 0.51 0.32 0.24 0.16 0.24 0.58 0.45 0.28 0.18 0.26 0.53 0.20 0.16
0.91 0.72 1.43 1.72 1.05 0.46 0.41 0.39 0.58 0.53 0.16 0.48 0.63 0.73 0.72 0.54 0.72 0.58 0.58 0.56 0.58 0.31 0.30 0.36 0.41 0.51 0.68 1.79 0.19 nan 0.49 0.24 0.37 0.51 0.30 0.49 0.66 0.41
0.37 0.70 1.03 1.03 0.49 0.30 0.31 0.35 0.39 0.63 0.68 0.54 0.85 1.14 1.33 0.99 0.93 0.65 0.58 0.90 0.65 0.34 0.21 0.17 0.28 0.37 0.79 1.17 1.83 1.00 nan 0.87 0.78 0.85 0.60 0.37 0.31 nan
0.33 0.34 0.63 0.56 0.53 0.37 1.22 1.38 1.73 1.53 1.53 1.97 1.15 1.19 2.61 0.76 0.88 0.66 0.72 0.77 0.68 0.30 0.34 0.26 0.22 0.12 0.40 0.89 3.37 1.35 1.03 nan 0.37 0.50 0.52 0.78 0.48 0.33
0.72 0.47 0.45 0.51 0.79 0.70 1.56 2.47 2.20 2.13 1.49 1.10 2.11 3.15 2.85 1.29 1.10 0.95 1.18 1.07 0.46 0.46 0.34 0.21 0.14 0.21 0.45 0.51 0.68 1.78 0.77 0.86 nan nan nan nan 0.90 1.09
1.31 0.59 0.83 0.99 0.94 1.19 0.67 1.35 0.64 2.96 1.20 1.21 1.15 1.15 5.33 1.55 0.83 0.91 1.03 0.75 0.57 0.60 0.39 0.40 0.23 0.23 0.25 0.26 0.49 0.79 0.53 1.09 0.61 0.47 0.94 nan nan nan
SL_Ratio
nan nan nan nan nan nan nan nan nan 3.3 nan nan nan nan nan nan nan nan nan nan nan nan nan nan nan nan nan nan nan nan nan nan nan nan nan nan nan nan
nan nan nan nan nan nan nan nan nan nan nan nan nan nan nan nan nan nan nan nan nan nan nan nan nan nan nan nan nan nan nan nan nan nan nan nan nan nan
nan nan nan nan nan nan nan nan nan nan nan nan nan nan nan nan nan nan nan nan nan nan nan nan nan nan nan nan nan nan nan nan nan nan nan nan nan nan
nan nan nan nan nan nan nan nan nan nan nan nan nan nan nan nan nan nan nan nan nan nan nan nan nan nan nan nan nan nan nan nan nan nan nan nan nan nan
nan nan nan nan nan nan nan nan nan nan nan nan nan nan nan nan nan nan nan nan nan nan nan nan nan nan nan nan nan nan nan nan nan nan nan nan nan nan
nan nan nan nan nan nan nan nan nan nan nan nan nan nan nan nan nan nan nan nan nan nan nan nan nan nan nan nan nan nan nan nan nan nan nan nan nan nan
nan nan nan nan nan nan nan nan nan nan nan nan 4.3 2.3 3.3 0.0 3.3 nan 2.6 nan nan nan nan nan nan nan nan nan nan nan nan nan nan nan nan nan nan nan
nan nan nan 10.0 5.0 nan nan nan nan 5.7 5.8 5.9 6.0 4.4 3.4 3.0 3.0 3.2 3.6 4.1 5.1 5.0 5.0 3.5 nan nan nan nan nan nan nan nan nan nan nan nan nan nan
4.4 5.5 5.1 5.7 nan 5.0 nan nan nan nan 3.0 4.8 3.5 4.0 4.5 4.5 4.5 4.9 5.2 5.7 5.7 5.3 4.8 4.8 2.7 3.8 0.0 nan nan nan nan nan nan nan nan nan nan nan
5.4 5.3 4.8 4.8 3.9 3.7 3.9 3.7 3.9 4.0 4.1 4.4 4.8 5.1 5.5 6.1 6.1 6.0 6.1 5.8 4.4 5.2 5.5 5.8 3.0 3.2 2.6 nan nan nan nan nan nan nan nan nan nan nan
6.1 6.2 4.9 3.8 nan nan 4.0 5.2 5.5 5.4 nan nan nan nan nan nan nan 4.5 4.6 5.0 4.2 3.7 4.8 5.7 4.1 4.1 3.0 2.7 2.6 nan nan nan nan nan nan nan nan nan
4.5 3.8 nan 3.5 nan nan 5.2 5.3 5.5 6.0 5.8 5.6 5.5 5.4 nan nan nan 6.0 5.1 5.9 5.8 6.1 5.9 5.9 5.8 5.8 5.4 3.0 2.6 2.5 2.5 nan nan nan nan nan nan 5.6
4.0 4.1 4.0 nan nan nan nan 5.4 5.7 5.7 5.6 3.7 3.8 3.6 3.8 4.3 4.0 4.4 5.6 5.3 6.1 6.1 7.5 6.7 6.0 5.0 5.7 5.6 3.1 3.0 3.2 2.8 2.6 2.7 nan nan nan 6.5
5.8 5.5 5.2 nan nan nan 3.7 nan nan 3.8 3.8 4.1 4.3 4.6 4.6 4.4 4.7 4.2 5.8 4.6 4.5 6.9 7.1 6.3 6.6 6.2 6.4 6.1 5.3 3.2 3.1 3.3 3.8 3.0 2.7 nan nan nan
4.7 4.7 nan nan nan 3.0 nan nan 3.3 4.1 4.2 5.1 5.1 5.1 4.9 4.4 4.3 4.2 5.2 4.6 4.8 4.2 5.0 5.0 5.5 6.8 5.9 6.6 6.2 5.1 4.7 3.7 3.5 3.8 3.8 3.7 3.7 3.9
4.1 4.1 nan 4.0 0.0 4.0 4.3 4.1 4.0 4.0 4.8 5.4 5.5 5.5 4.4 4.3 4.3 3.8 4.8 4.6 5.0 4.5 3.8 4.7 5.5 5.9 5.8 5.6 6.0 5.5 4.3 5.3 3.9 3.6 3.4 3.2 3.1 3.0
4.5 4.5 4.7 4.9 5.1 4.9 4.6 4.5 4.5 4.6 5.2 5.3 5.6 5.5 5.2 4.9 4.7 4.1 4.4 4.5 5.5 4.9 4.6 3.8 4.7 5.2 4.4 5.6 5.4 5.3 5.1 5.0 5.0 4.3 4.4 4.3 3.2 3.1
5.2 5.4 6.0 5.9 6.1 5.6 5.7 5.4 5.0 4.8 5.3 5.0 5.0 5.2 5.4 5.3 5.6 5.2 5.3 5.8 6.1 5.8 5.3 4.4 4.5 5.0 4.5 4.6 4.3 5.1 4.5 5.5 5.3 4.7 4.1 4.7 4.3 3.7
5.8 6.0 7.0 6.7 6.3 6.4 6.4 6.0 6.0 5.4 6.1 5.3 5.4 5.5 5.7 5.6 5.6 5.3 5.1 5.3 5.6 5.6 5.9 5.6 5.8 6.0 7.2 7.2 4.0 nan 5.5 4.9 4.4 4.3 3.9 4.2 4.6 4.0
5.8 6.8 7.3 6.8 6.3 6.3 6.2 6.3 6.0 5.7 5.8 5.6 5.7 5.8 6.0 6.5 6.2 6.3 5.9 6.9 6.3 6.0 6.0 5.8 6.0 6.2 8.0 7.6 6.2 5.2 nan 4.9 5.0 5.5 5.2 4.3 3.9 nan
6.2 6.3 6.6 7.0 6.9 6.7 6.7 6.8 6.9 6.8 6.6 6.5 6.2 6.2 5.7 6.2 6.1 5.8 6.1 5.1 4.8 6.7 6.8 5.9 5.5 3.0 6.8 6.0 6.0 5.5 4.6 nan 5.0 5.9 6.2 5.8 5.2 5.2
6.9 7.2 6.8 6.8 7.0 7.3 7.5 7.1 6.8 6.6 6.9 6.7 7.0 6.3 6.0 6.6 7.3 7.4 6.8 6.8 6.2 6.4 7.5 6.3 6.0 6.9 6.1 7.2 6.9 5.5 5.6 5.1 nan nan nan nan 6.0 6.4
7.1 7.2 6.7 6.8 6.6 6.7 7.1 7.5 7.5 6.8 7.4 7.4 7.5 7.1 6.0 7.5 7.1 6.8 6.7 6.6 7.0 6.8 6.7 7.0 7.0 7.9 6.5 7.5 6.7 6.4 6.8 5.4 5.7 6.0 5.6 nan nan nan